[[{"header":{"parameterUnit":"m.s-1","parameterCategory":2,"la1":30.2992,"la2":30.254,"lo1":-89.0895,"lo2":-89.0443,"dy":0.0025,"dx":0.0025,"nx":19,"ny":19,"refTime":"2026-03-22T03:00:00:Z","depth":"0","parameterNumber":2,"parameterNumberName":"U-component_of_CURRENTS"},"data":[0,0,0,0.1242,0.1244,0.1303,0.1303,0.1318,0.1318,0,0,0,0,0,0,0,0,0,0,0,0.1221,0.1222,0.1242,0.1244,0.1303,0.1303,0.1318,0.1318,0,0,0,0,0,0,0,0,0,0,0,0.1221,0.1222,0.1223,0.1244,0.1303,0.1303,0.1318,0.1286,0,0,0,0,0,0,0,0,0,0,0.1235,0.122,0.1222,0.1223,0.1245,0.1303,0.1303,0.1285,0.1288,0.1277,0,0.1298,0,0.1313,0.1319,0.1319,0,0,0,0.1233,0.1217,0.1244,0.1223,0.1245,0.1303,0.1273,0.1287,0.129,0.1281,0.1299,0.13,0.1313,0.1319,0.1319,0.1467,0.1469,0,0,0.1229,0.1217,0.1243,0.1247,0.1275,0.1272,0.1275,0.1289,0.1291,0.1299,0.13,0.1314,0.1319,0.1319,0.1466,0.1468,0,0,0,0.1228,0.1215,0.1242,0.1246,0.1264,0.1274,0.1278,0.129,0.1303,0.1301,0.1314,0.1319,0.1319,0.1464,0.1466,0.1694,0,0,0,0.1225,0.1215,0.1241,0.1232,0.1265,0.1285,0.1278,0.1302,0.1304,0.1314,0.1319,0.1319,0.1462,0.1465,0.1684,0.1834,0,0,0,0.1216,0.1213,0.1228,0.1232,0.1264,0.1285,0.1298,0.1303,0.1312,0.1319,0.1319,0.1461,0.1465,0.1676,0.1817,0.2134,0,0,0,0.119,0.1228,0.1227,0.1263,0.1264,0.1322,0.1298,0.1324,0.1332,0.1319,0.1462,0.1466,0.1673,0.1806,0.212,0.222,0.2291,0,0,0.1226,0.1231,0.1251,0.1253,0.1303,0.1312,0.142,0.1413,0.1393,0.1446,0.1451,0.1688,0.1816,0.2131,0.2432,0.2498,0,0,0,0.1253,0.1262,0.1276,0.1303,0.1346,0.1475,0.1452,0.1524,0.1643,0.142,0.1699,0.1774,0.1966,0.1996,0.2048,0.2162,0.1483,0.1483,0.1482,0.1271,0.1287,0.1335,0.1378,0.1449,0.1571,0.1733,0.1838,0.173,0.1858,0.1966,0.2372,0.2399,0.2441,0.2556,0.1945,0.1946,0.1947,0.1947,0.1308,0.1394,0.1405,0.1468,0.162,0.1742,0.2027,0.208,0.2421,0.2215,0.2392,0.2239,0.2513,0.2614,0.1962,0.196,0.1958,0.1956,0.1955,0.1324,0.1419,0.1395,0.1573,0.1774,0.1954,0.235,0.2534,0.2667,0.287,0.2958,0.2952,0.3048,0.2971,0.2973,0.2975,0.2977,0.2979,0.298,0.1476,0.1471,0.1631,0.1759,0.1925,0.2229,0.2611,0.2869,0.3214,0.3281,0.3282,0.322,0.2687,0.2654,0.3012,0.3006,0.3002,0.2999,0.2997,0.1833,0.178,0.1985,0.2124,0.2423,0.2633,0.292,0.3371,0.3683,0.3872,0.3915,0.3531,0.3507,0.3459,0.3446,0.3989,0.3989,0.3989,0.3989,0.2163,0.2122,0.2404,0.2592,0.2813,0.288,0.3233,0.357,0.4068,0.4328,0.439,0.4131,0.4085,0.4077,0.4016,0.4005,0.4679,0.468,0.4681,0.2617,0.2555,0.2818,0.2785,0.2951,0.306,0.3246,0.3589,0.4341,0.4716,0.4561,0.4532,0.4136,0.4055,0.3997,0.3903,0.3863,0,0]},{"header":{"parameterUnit":"m.s-1","parameterCategory":2,"la1":30.2992,"la2":30.254,"lo1":-89.0895,"lo2":-89.0443,"dy":0.0025,"dx":0.0025,"nx":19,"ny":19,"refTime":"2026-03-22T03:00:00:Z","depth":"0","parameterNumber":3,"parameterNumberName":"V-component_of_CURRENTS"},"data":[0,0,0,-0.1091,-0.1093,-0.1202,-0.1203,-0.1301,-0.1302,0,0,0,0,0,0,0,0,0,0,0,-0.1049,-0.105,-0.1091,-0.1094,-0.1202,-0.1203,-0.1301,-0.1302,0,0,0,0,0,0,0,0,0,0,0,-0.1049,-0.1049,-0.105,-0.1094,-0.1202,-0.1203,-0.1301,-0.123,0,0,0,0,0,0,0,0,0,0,-0.1131,-0.109,-0.1049,-0.105,-0.1095,-0.1202,-0.1203,-0.1228,-0.1235,-0.1238,0,-0.1251,0,-0.1277,-0.1307,-0.1307,0,0,0,-0.11,-0.1084,-0.1118,-0.105,-0.1096,-0.1202,-0.1155,-0.1232,-0.124,-0.1248,-0.1252,-0.1257,-0.1279,-0.1307,-0.1308,-0.1138,-0.1136,0,0,-0.1094,-0.1066,-0.1112,-0.1123,-0.1117,-0.1151,-0.1158,-0.1237,-0.1239,-0.1253,-0.1259,-0.1281,-0.1308,-0.1308,-0.114,-0.1137,0,0,0,-0.1073,-0.1062,-0.1095,-0.1118,-0.1141,-0.1154,-0.1162,-0.1236,-0.1248,-0.1261,-0.1282,-0.1308,-0.1309,-0.1143,-0.1139,-0.0739,0,0,0,-0.1069,-0.1049,-0.1092,-0.1076,-0.1139,-0.1194,-0.1158,-0.1243,-0.1253,-0.1281,-0.1308,-0.131,-0.1146,-0.1141,-0.0756,-0.0549,0,0,0,-0.1045,-0.1047,-0.1058,-0.1074,-0.112,-0.1194,-0.1211,-0.1246,-0.1265,-0.1307,-0.131,-0.1147,-0.1142,-0.077,-0.0576,-0.0329,0,0,0,-0.1015,-0.1027,-0.1058,-0.1057,-0.1119,-0.1091,-0.1211,-0.1223,-0.1247,-0.1309,-0.1145,-0.1139,-0.0775,-0.0593,-0.0347,-0.0263,-0.0175,0,0,-0.1013,-0.1026,-0.102,-0.105,-0.097,-0.1078,-0.0908,-0.1014,-0.115,-0.1125,-0.1122,-0.075,-0.0578,-0.0333,0.007,0.0148,0,0,0,-0.1006,-0.0971,-0.0966,-0.0919,-0.0928,-0.0752,-0.0867,-0.0845,-0.0784,-0.1138,-0.0745,-0.0649,-0.0507,-0.0494,-0.043,-0.0547,-0.1113,-0.1113,-0.1114,-0.0906,-0.0881,-0.0768,-0.0688,-0.0625,-0.0528,-0.0382,-0.0351,-0.0568,-0.0446,-0.0319,0.0148,0.0168,0.0215,0.0097,-0.0335,-0.0334,-0.0333,-0.0332,-0.0735,-0.0572,-0.0506,-0.0377,-0.0191,-0.002,0.0169,0.0136,0.0361,0.0085,0.0201,-0.0069,0.0309,0.0155,-0.0306,-0.031,-0.0314,-0.0316,-0.0318,-0.0544,-0.0423,-0.0381,-0.0089,0.0212,0.0368,0.0766,0.0813,0.075,0.0912,0.0827,0.0818,0.0678,0.0935,0.0937,0.0939,0.0941,0.0942,0.0944,-0.0275,-0.0213,-0.0006,0.0245,0.0457,0.082,0.1126,0.1295,0.1408,0.1309,0.1306,0.0854,0.0534,0.0478,0.0976,0.097,0.0966,0.0963,0.0961,0.0152,0.0098,0.0385,0.0571,0.1023,0.1369,0.1579,0.1874,0.2003,0.2068,0.1614,0.1502,0.1382,0.1325,0.1286,0.1965,0.1965,0.1965,0.1965,0.0446,0.044,0.0784,0.1064,0.1463,0.1665,0.2059,0.2236,0.2179,0.21,0.1966,0.1666,0.163,0.1501,0.144,0.1391,0.2082,0.2082,0.2081,0.081,0.0806,0.1106,0.1255,0.1647,0.1944,0.2207,0.2433,0.2322,0.2067,0.1819,0.1814,0.1332,0.1284,0.1016,0.0941,0.0832,0,0]}],[{"header":{"parameterUnit":"m.s-1","parameterCategory":2,"la1":30.2992,"la2":30.254,"lo1":-89.0895,"lo2":-89.0443,"dy":0.0025,"dx":0.0025,"nx":19,"ny":19,"refTime":"2026-03-22T03:00:00:Z","depth":"2","parameterNumber":2,"parameterNumberName":"U-component_of_CURRENTS"},"data":[0,0,0,0.1727,0.1729,0.1823,0.1824,0.1913,0.1914,0,0,0,0,0,0,0,0,0,0,0,0.1695,0.1696,0.1727,0.173,0.1823,0.1824,0.1913,0.1914,0,0,0,0,0,0,0,0,0,0,0,0.1695,0.1696,0.1697,0.173,0.1823,0.1824,0.1913,0.1849,0,0,0,0,0,0,0,0,0,0,0.1761,0.1735,0.1696,0.1697,0.1731,0.1823,0.1824,0.1846,0.1853,0.1864,0,0.1885,0,0.1904,0.192,0.192,0,0,0,0.1726,0.1729,0.1758,0.1697,0.1732,0.1823,0.178,0.185,0.1858,0.1872,0.1887,0.189,0.1905,0.192,0.1921,0.2005,0.2005,0,0,0.1721,0.1708,0.1753,0.1763,0.1765,0.1777,0.1783,0.1855,0.1864,0.1887,0.1893,0.1907,0.1921,0.1922,0.2005,0.2005,0,0,0,0.1708,0.1704,0.1732,0.1759,0.178,0.178,0.1787,0.1861,0.1872,0.1894,0.1908,0.1921,0.1923,0.2004,0.2005,0.2065,0,0,0,0.1705,0.1697,0.1729,0.1722,0.1779,0.1825,0.179,0.1866,0.1875,0.1907,0.1922,0.1923,0.2004,0.2005,0.2063,0.2057,0,0,0,0.1689,0.1695,0.171,0.1721,0.1764,0.1825,0.184,0.1869,0.1884,0.192,0.1924,0.2004,0.2005,0.206,0.2054,0.2178,0,0,0,0.1667,0.17,0.171,0.175,0.1763,0.1821,0.1839,0.1888,0.1919,0.1922,0.2004,0.2005,0.206,0.2052,0.2175,0.2224,0.2244,0,0,0.1695,0.1703,0.1727,0.1738,0.1789,0.1807,0.1875,0.1926,0.1932,0.1977,0.1979,0.2063,0.2054,0.2178,0.2263,0.2282,0,0,0,0.1726,0.1743,0.1761,0.1793,0.183,0.1878,0.1923,0.1958,0.202,0.1956,0.206,0.2051,0.2129,0.2151,0.2166,0.2008,0.2008,0.2008,0.2008,0.1742,0.1761,0.1792,0.1825,0.1861,0.1933,0.1985,0.2036,0.2047,0.2086,0.21,0.2225,0.2247,0.2259,0.2115,0.2116,0.2116,0.2116,0.2116,0.1763,0.1769,0.18,0.1832,0.1881,0.1934,0.2042,0.2084,0.2203,0.2156,0.2232,0.2209,0.2279,0.2121,0.212,0.2119,0.2119,0.2118,0.2118,0.1757,0.1756,0.1775,0.1799,0.1858,0.1932,0.2069,0.2143,0.2231,0.2298,0.239,0.2389,0.2286,0.2378,0.2379,0.2379,0.2379,0.238,0.238,0.1718,0.1738,0.1746,0.1769,0.1803,0.1898,0.2087,0.2222,0.2396,0.2441,0.2443,0.2314,0.2305,0.2302,0.2388,0.2387,0.2386,0.2385,0.2385,0.1683,0.1686,0.1694,0.1719,0.1807,0.1895,0.2103,0.2396,0.2559,0.2656,0.2556,0.2549,0.2545,0.2532,0.2534,0.2676,0.2676,0.2676,0.2676,0.1646,0.165,0.1658,0.1698,0.1789,0.1901,0.2084,0.218,0.2392,0.2407,0.2416,0.2321,0.2319,0.2294,0.2286,0.2279,0.2354,0.2353,0.2351,0.1606,0.1611,0.161,0.1651,0.176,0.191,0.1938,0.1851,0.2063,0.232,0.2165,0.2692,0.2579,0.2565,0.2544,0.2525,0.252,0,0]},{"header":{"parameterUnit":"m.s-1","parameterCategory":2,"la1":30.2992,"la2":30.254,"lo1":-89.0895,"lo2":-89.0443,"dy":0.0025,"dx":0.0025,"nx":19,"ny":19,"refTime":"2026-03-22T03:00:00:Z","depth":"2","parameterNumber":3,"parameterNumberName":"V-component_of_CURRENTS"},"data":[0,0,0,-0.0251,-0.0252,-0.028,-0.028,-0.0357,-0.0357,0,0,0,0,0,0,0,0,0,0,0,-0.0243,-0.0243,-0.0251,-0.0252,-0.028,-0.028,-0.0356,-0.0357,0,0,0,0,0,0,0,0,0,0,0,-0.0243,-0.0243,-0.0243,-0.0252,-0.028,-0.0281,-0.0356,-0.0327,0,0,0,0,0,0,0,0,0,0,-0.0296,-0.0279,-0.0243,-0.0243,-0.0252,-0.028,-0.0281,-0.0325,-0.0329,-0.0352,0,-0.035,0,-0.0352,-0.0362,-0.0363,0,0,0,-0.0261,-0.0276,-0.0281,-0.0243,-0.0252,-0.028,-0.027,-0.0327,-0.0331,-0.0357,-0.0351,-0.0354,-0.0353,-0.0363,-0.0363,-0.0445,-0.0445,0,0,-0.0259,-0.0254,-0.0278,-0.0283,-0.0253,-0.0269,-0.0271,-0.0329,-0.0333,-0.0352,-0.0356,-0.0355,-0.0363,-0.0364,-0.0445,-0.0445,0,0,0,-0.0249,-0.0253,-0.0256,-0.0281,-0.0281,-0.027,-0.0272,-0.0331,-0.0331,-0.0356,-0.0356,-0.0364,-0.0365,-0.0444,-0.0445,-0.0343,0,0,0,-0.0248,-0.0246,-0.0255,-0.0253,-0.0279,-0.0301,-0.0272,-0.0327,-0.0333,-0.0355,-0.0364,-0.0366,-0.0444,-0.0444,-0.0345,-0.0296,0,0,0,-0.0243,-0.0246,-0.0246,-0.0253,-0.026,-0.0299,-0.0303,-0.0328,-0.0333,-0.0363,-0.0366,-0.0444,-0.0444,-0.0347,-0.03,-0.0255,0,0,0,-0.0241,-0.0229,-0.0246,-0.0242,-0.026,-0.0292,-0.0303,-0.0331,-0.0356,-0.0364,-0.0444,-0.0445,-0.0348,-0.0302,-0.0257,-0.0189,-0.017,0,0,-0.0221,-0.0226,-0.0226,-0.0241,-0.0263,-0.0289,-0.0305,-0.0336,-0.0377,-0.0428,-0.043,-0.0345,-0.03,-0.0255,-0.0232,-0.0212,0,0,0,-0.0217,-0.0223,-0.0232,-0.0251,-0.0278,-0.0281,-0.0329,-0.0336,-0.0357,-0.0393,-0.0389,-0.0365,-0.0338,-0.0305,-0.029,-0.0448,-0.0448,-0.0448,-0.0448,-0.0192,-0.0214,-0.0221,-0.0251,-0.0264,-0.0291,-0.0285,-0.0311,-0.0355,-0.0349,-0.0314,-0.0257,-0.0222,-0.021,-0.0357,-0.0357,-0.0356,-0.0356,-0.0356,-0.0179,-0.0182,-0.0206,-0.0213,-0.022,-0.0229,-0.0234,-0.0239,-0.0224,-0.0273,-0.0252,-0.0241,-0.0186,-0.0349,-0.035,-0.0351,-0.0352,-0.0352,-0.0353,-0.0168,-0.0166,-0.0174,-0.017,-0.0141,-0.0144,-0.005,-0.0087,-0.0134,-0.0105,-0.0084,-0.0085,-0.0164,-0.0089,-0.0088,-0.0088,-0.0088,-0.0087,-0.0087,-0.0139,-0.015,-0.0124,-0.0111,-0.0064,0.002,0.0067,0.0092,0.007,0.0025,0.0025,-0.0167,-0.0176,-0.0152,-0.0081,-0.0082,-0.0083,-0.0083,-0.0084,-0.0136,-0.0118,-0.0073,-0.0028,0.0112,0.0297,0.0309,0.0377,0.0341,0.0331,0.0089,0.0083,0.0058,0.0044,0.0071,0.0196,0.0196,0.0196,0.0196,-0.0116,-0.0113,-0.0011,0.0103,0.0277,0.0433,0.0681,0.0631,0.0445,0.0292,0.0287,0.0242,0.0229,0.0209,0.0191,0.0219,0.0382,0.0383,0.0383,-0.0119,-0.0083,0.001,0.0142,0.0358,0.0634,0.088,0.0849,0.0534,0.0386,0.0281,0.0216,0.0135,0.012,0.0071,0.005,0.0086,0,0]}],[{"header":{"parameterUnit":"m.s-1","parameterCategory":2,"la1":30.2992,"la2":30.254,"lo1":-89.0895,"lo2":-89.0443,"dy":0.0025,"dx":0.0025,"nx":19,"ny":19,"refTime":"2026-03-22T03:00:00:Z","depth":"4","parameterNumber":2,"parameterNumberName":"U-component_of_CURRENTS"},"data":[0,0,0,0.0804,0.0807,0.0927,0.0928,0.1042,0.1043,0,0,0,0,0,0,0,0,0,0,0,0.0754,0.0755,0.0804,0.0807,0.0927,0.0928,0.1042,0.1043,0,0,0,0,0,0,0,0,0,0,0,0.0754,0.0755,0.0756,0.0808,0.0927,0.0928,0.1041,0.0958,0,0,0,0,0,0,0,0,0,0,0.0846,0.0815,0.0754,0.0756,0.0808,0.0927,0.0928,0.0955,0.0964,0.0979,0,0.1002,0,0.1033,0.105,0.1051,0,0,0,0.0798,0.0807,0.0837,0.0756,0.081,0.0927,0.087,0.096,0.097,0.099,0.1004,0.1009,0.1035,0.1051,0.1052,0.1211,0.1212,0,0,0.0792,0.0778,0.0831,0.0844,0.0847,0.0867,0.0874,0.0966,0.098,0.1005,0.1012,0.1037,0.1052,0.1053,0.121,0.1211,0,0,0,0.0778,0.0773,0.0802,0.0838,0.0868,0.087,0.0879,0.0976,0.0985,0.1014,0.1038,0.1053,0.1054,0.1209,0.121,0.1262,0,0,0,0.0774,0.0767,0.0799,0.0792,0.0867,0.0932,0.0886,0.0978,0.099,0.1038,0.1053,0.1055,0.1208,0.121,0.1258,0.1285,0,0,0,0.0747,0.0764,0.0779,0.0791,0.0848,0.0931,0.0945,0.0981,0.1005,0.1051,0.1055,0.1207,0.1209,0.1255,0.128,0.1299,0,0,0,0.0727,0.0748,0.0779,0.0813,0.0847,0.0923,0.0945,0.1018,0.1061,0.1053,0.1208,0.121,0.1254,0.1276,0.1296,0.112,0,0,0,0.0735,0.0749,0.0767,0.0797,0.0868,0.0905,0.0998,0.107,0.1099,0.1171,0.1175,0.1259,0.1279,0.1298,0.1248,0,0,0,0,0.0757,0.0778,0.0804,0.0856,0.0911,0.0989,0.1061,0.1106,0.1208,0.1137,0.1288,0.13,0.1309,0.12,0.1221,0.122,0.122,0.122,0.122,0.0727,0.0771,0.0826,0.0895,0.0953,0.1064,0.1138,0.1218,0.1244,0.1309,0.1363,0.1444,0.1334,0.1385,0.1385,0.1385,0.1386,0.1386,0.1386,0.0744,0.0762,0.0854,0.0938,0.1022,0.1121,0.1235,0.1289,0.143,0.1426,0.1433,0.129,0.1392,0.1391,0.139,0.1389,0.1389,0.1388,0.1388,0.0709,0.0723,0.0809,0.0924,0.1053,0.1174,0.1294,0.141,0.1472,0.1533,0.1415,0.1481,0.145,0.1546,0.1547,0.1547,0.1547,0.1547,0.1547,0.0614,0.0694,0.0752,0.0903,0.1006,0.1145,0.1342,0.1415,0.1505,0.1467,0.1565,0.1497,0.1492,0.1461,0.1551,0.155,0.155,0.1549,0.1549,0.0516,0.0548,0.0631,0.0725,0.0934,0.1037,0.1238,0.1354,0.1408,0.1397,0.141,0.1416,0.1377,0.1374,0.1336,0.1393,0.1391,0.1389,0,0.0401,0.0434,0.05,0.061,0.0748,0.0942,0.1019,0.1132,0.1237,0.1195,0.1353,0.1361,0.1366,0.1313,0.1308,0.1258,0,0,0,0.0297,0.0341,0.035,0.0489,0.0665,0.0836,0.1024,0.1041,0.123,0.1257,0.1341,0.1354,0.1448,0.1562,0.1515,0.1509,0.1455,0,0]},{"header":{"parameterUnit":"m.s-1","parameterCategory":2,"la1":30.2992,"la2":30.254,"lo1":-89.0895,"lo2":-89.0443,"dy":0.0025,"dx":0.0025,"nx":19,"ny":19,"refTime":"2026-03-22T03:00:00:Z","depth":"4","parameterNumber":3,"parameterNumberName":"V-component_of_CURRENTS"},"data":[0,0,0,0.0179,0.0179,0.015,0.015,0.0106,0.0106,0,0,0,0,0,0,0,0,0,0,0,0.0194,0.0194,0.0179,0.0178,0.015,0.015,0.0106,0.0106,0,0,0,0,0,0,0,0,0,0,0,0.0194,0.0194,0.0194,0.0178,0.015,0.015,0.0107,0.0129,0,0,0,0,0,0,0,0,0,0,0.0157,0.0172,0.0194,0.0194,0.0178,0.015,0.015,0.013,0.0128,0.0118,0,0.012,0,0.0111,0.0103,0.0103,0,0,0,0.0175,0.0174,0.0168,0.0194,0.0178,0.015,0.0162,0.0129,0.0126,0.0115,0.0119,0.0118,0.011,0.0103,0.0103,0.0056,0.0056,0,0,0.0177,0.0186,0.017,0.0166,0.0178,0.0163,0.0161,0.0127,0.0127,0.0119,0.0116,0.0109,0.0103,0.0102,0.0057,0.0056,0,0,0,0.0184,0.0187,0.0181,0.0168,0.0163,0.0162,0.016,0.0128,0.0127,0.0116,0.0109,0.0102,0.0102,0.0057,0.0057,0.0059,0,0,0,0.0184,0.0191,0.0182,0.0186,0.0164,0.0145,0.0162,0.0129,0.0125,0.0109,0.0102,0.0102,0.0057,0.0057,0.0059,0.009,0,0,0,0.0194,0.0191,0.0191,0.0187,0.0175,0.0146,0.0142,0.0128,0.0121,0.0103,0.0101,0.0057,0.0057,0.006,0.0089,0.0084,0,0,0,0.02,0.0234,0.0191,0.0228,0.0176,0.0193,0.0142,0.0153,0.0147,0.0102,0.0057,0.0057,0.006,0.0089,0.0084,0.0136,0,0,0,0.0254,0.024,0.0265,0.0227,0.0247,0.0196,0.0191,0.0159,0.0127,0.0068,0.0067,0.0059,0.0089,0.0084,0.0107,0,0,0,0,0.029,0.0292,0.0299,0.0291,0.0288,0.0241,0.0202,0.0162,0.0095,0.0119,0.0049,0.0068,0.0065,0.0094,0.0054,0.0054,0.0054,0.0055,0.0055,0.0333,0.0328,0.0342,0.0318,0.0322,0.0267,0.0226,0.0151,0.012,0.0079,0.0061,0.0052,0.008,0.0035,0.0035,0.0035,0.0035,0.0035,0.0035,0.0354,0.0331,0.033,0.034,0.03,0.0283,0.0209,0.0163,0.0076,0.005,0.0045,0.0083,0.0035,0.0035,0.0035,0.0035,0.0035,0.0035,0.0035,0.0318,0.0303,0.032,0.0316,0.0312,0.0285,0.0266,0.0191,0.0104,0.0081,0.0101,0.0059,0.0069,0.0068,0.0068,0.0068,0.0068,0.0068,0.0068,0.0249,0.0267,0.0291,0.0298,0.0323,0.0335,0.03,0.0262,0.0178,0.0132,0.0087,0.0063,0.0062,0.0071,0.007,0.007,0.0069,0.0069,0.0069,0.018,0.0227,0.0264,0.0303,0.0367,0.038,0.0374,0.0314,0.0268,0.0211,0.0147,0.0143,0.0152,0.0149,0.0162,0.0187,0.0188,0.0189,0,0.0157,0.017,0.0275,0.0356,0.0404,0.0424,0.0415,0.0377,0.0265,0.0261,0.0233,0.0163,0.0159,0.0171,0.017,0.0186,0,0,0,0.0145,0.0189,0.027,0.0367,0.0434,0.0432,0.0417,0.0388,0.0298,0.0269,0.0206,0.0201,0.016,0.0074,0.0079,0.0078,0.0093,0,0]}]]